Location: �bnet
(46.9957°N, 8.4908°E)
Time: 03:08:07
(UTC+00:00)

Cosmos 2278 Rocket - Pass Details

Date: 11 May 2021
Orbit: 841 x 845 km, 71.0° (Epoch: 23 June)

Event Time Altitude Azimuth Distance (km) Brightness Sun altitude
Rises 22:01:39 0° 237° (WSW) 3,388 5.2 -22.4°
Reaches altitude 10° 22:04:22 10° 248° (WSW) 2,457 4.6 -22.6°
Maximum altitude 22:09:20 31° 310° (NW) 1,438 3.9 -22.8°
Drops below altitude 10° 22:14:21 10° 12° (NNE) 2,469 5.4 -23.1°
Sets 22:17:05 0° 23° (NNE) 3,408 6.1 -23.2°
